CW4647 Weather Reports


time (UTC)temp
C
wind
direction
speed
KPH
gust
KPH
rain 1hr
cm
rain 24hr
cm
rain mn
cm
humidity
%
barometer
mb
20260505192055 26 98 9.7 20.9 0.00 2.03 0.00 83 1010.3
20260505191559 26 85 8.0 20.9 0.00 2.03 0.00 83 1010.3
20260505191056 -4 103 8.0 22.5 0.00 2.03 0.00 1010.3
20260505190555 26 111 9.7 22.5 0.00 2.03 0.00 1010.3
20260505190056 -4 360 9.7 19.3 0.00 2.03 0.00 1010.2
20260505185557 26 91 14.5 19.3 0.00 2.03 0.00 83 1010.2
20260505185056 26 57 9.7 17.7 0.00 2.03 0.00 84 1010.2
20260505184602 26 94 11.3 16.1 0.00 2.03 0.00 84 1010.1
20260505184056 26 61 11.3 24.1 0.00 2.03 0.00 84 1010.1
20260505183555 -5 65 9.7 24.1 0.00 2.03 0.00 1010.1
20260505183057 -5 81 16.1 24.1 0.00 2.03 0.00 1009.9
20260505182557 -5 111 9.7 19.3 0.00 2.03 0.00 1009.8
20260505182059 26 86 9.7 20.9 0.00 2.03 0.00 85 1009.8
20260505181600 26 65 12.9 20.9 0.00 2.03 0.00 85 1009.7
20260505181058 26 78 9.7 19.3 0.00 2.03 0.00 1009.7
20260505180557 -5 90 11.3 25.7 0.00 2.03 0.00 1009.7
20260505175558 26 79 9.7 24.1 0.00 2.03 0.00 85 1009.7
20260505175100 -6 101 14.5 24.1 0.00 2.03 0.00 1009.6
20260505174613 26 96 11.3 24.1 0.00 2.03 0.00 84 1009.7
20260505174056 -6 112 11.3 29.0 0.00 2.03 0.00 1009.7
20260505173556 -6 69 14.5 29.0 0.00 2.03 0.00 1009.7
20260505173159 -6 86 9.7 25.7 0.00 2.03 0.00 1009.7
20260505172601 26 360 11.3 25.7 0.00 2.03 0.00 85 1009.7
20260505172057 26 80 12.9 24.1 0.00 2.03 0.00 85 1009.8
20260505171557 26 113 9.7 19.3 0.00 2.03 0.00 85 1009.7
20260505171100 26 107 8.0 22.5 0.00 2.03 0.00 85 1009.9
20260505170557 26 87 9.7 22.5 0.00 2.03 0.00 85 1009.9
20260505170136 26 67 6.4 19.3 0.00 2.03 0.00 85 1009.9
20260505165557 -7 80 9.7 22.5 0.00 2.03 0.00 100 1010.0
20260505165055 -7 102 8.0 22.5 0.00 2.03 0.00 1010.1
20260505164555 26 96 9.7 20.9 0.00 2.03 0.00 85 1010.2
20260505164059 26 86 11.3 20.9 0.00 2.03 0.00 1010.2
20260505163556 26 103 9.7 20.9 0.00 2.03 0.00 1010.3
20260505163059 -7 61 8.0 20.9 0.00 2.03 0.00 1010.4
20260505162555 -7 71 12.9 22.5 0.00 2.03 0.00 85 1010.4
20260505162056 26 94 11.3 25.7 0.00 2.03 0.00 1010.4
20260505161604 25 70 14.5 25.7 0.00 2.03 0.00 85 1010.5
20260505161056 25 85 14.5 24.1 0.00 2.03 0.00 85 1010.7
20260505160559 -8 71 12.9 24.1 0.00 2.03 0.00 100 1010.7
20260505153100 25 73 16.1 24.1 0.00 2.03 0.00 85 1011.1
20260505152556 25 34 14.5 32.2 0.00 2.03 0.00 85 1011.0
20260505152056 25 91 16.1 35.4 0.00 2.03 0.00 85 1011.1
20260505151558 25 54 20.9 38.6 0.00 2.03 0.00 86 1011.1
20260505151056 25 66 20.9 38.6 0.00 2.03 0.00 86 1011.1
20260505150557 25 89 16.1 32.2 0.00 2.03 0.00 86 1011.0
20260505140556 25 94 8.0 22.5 0.08 2.03 0.00 89 1011.4
20260505124600 -25 98 19.3 46.7 1.32 1.65 1.65 1012.4
20260505124100 -28 152 19.3 46.7 1.07 1.37 1.37 1012.5
20260505123603 25 98 14.5 29.0 0.81 1.07 1.07 1012.4
20260505123114 -41 71 16.1 32.2 0.71 0.97 0.97 1012.4
20260505122556 25 78 11.3 40.2 0.56 0.81 0.81 89 1012.3
20260505122100 25 76 20.9 40.2 0.43 0.69 0.69 89 1012.1
20260505121601 25 77 20.9 40.2 0.36 0.61 0.61 88 1012.1
20260505121058 25 115 20.9 40.2 0.33 0.58 0.58 88 1012.2
20260505120557 25 86 14.5 32.2 0.33 0.58 0.58 88 1012.4
20260505120100 25 64 19.3 32.2 0.30 0.53 0.53 88 1012.4
20260505115601 25 87 12.9 27.4 0.20 0.43 0.43 88 1012.4
20260505115059 25 72 11.3 32.2 0.10 0.33 0.33 87 1012.3
20260505114614 25 90 16.1 32.2 0.08 0.30 0.30 87 1012.1
20260505114057 25 63 16.1 32.2 0.13 0.30 0.30 87 1012.2
20260505113603 26 93 14.5 32.2 0.15 0.25 0.25 87 1012.1
20260505113058 26 82 8.0 22.5 0.15 0.25 0.25 87 1012.0
20260505112603 26 96 9.7 27.4 0.15 0.25 0.25 87 1012.0
20260505112059 26 93 11.3 27.4 0.15 0.25 0.25 87 1012.0
20260505111609 26 90 16.1 33.8 0.15 0.25 0.25 87 1011.8
20260505111056 26 113 17.7 33.8 0.15 0.25 0.25 87 1011.8
20260505110556 26 87 19.3 32.2 0.18 0.25 0.25 87 1011.7
20260505110119 26 92 9.7 24.1 0.15 0.23 0.23 87 1011.6
20260505102056 25 78 16.1 29.0 0.03 0.10 0.10 87 1011.4
20260505101555 25 91 14.5 35.4 0.03 0.10 0.10 86 1011.3
20260505101057 25 101 17.7 43.5 0.03 0.10 0.10 85 1011.3
20260505100556 26 101 24.1 43.5 0.00 0.08 0.08 84 1011.3
20260505100055 26 89 16.1 29.0 0.00 0.08 0.08 85 1011.2
20260505095556 26 81 12.9 27.4 0.00 0.08 0.08 85 1011.0
20260505095057 26 360 11.3 29.0 0.00 0.08 0.08 85 1011.1
20260505094556 26 88 16.1 29.0 0.00 0.08 0.08 85 1011.0
20260505094056 26 73 14.5 25.7 0.00 0.08 0.08 86 1011.0
20260505093600 26 45 16.1 25.7 0.03 0.08 0.08 86 1011.0
20260505093057 26 100 16.1 27.4 0.05 0.08 0.08 86 1010.9
20260505092556 26 79 16.1 27.4 0.05 0.08 0.08 86 1010.8
20260505092056 26 113 11.3 27.4 0.05 0.08 0.08 85 1010.9
20260505091557 26 80 14.5 27.4 0.05 0.08 0.08 85 1010.8
20260505091055 26 63 14.5 27.4 0.05 0.08 0.08 85 1010.8
20260505090555 26 71 12.9 33.8 0.08 0.08 0.08 85 1010.8
20260505090101 26 117 9.7 33.8 0.08 0.08 0.08 85 1010.8
20260505085556 26 86 20.9 33.8 0.08 0.08 0.08 84 1010.9
20260505085057 26 74 16.1 25.7 0.08 0.08 0.08 85 1010.7
20260505084557 26 58 12.9 24.1 0.08 0.08 0.08 85 1010.5
20260505084055 26 86 11.3 29.0 0.08 0.08 0.08 85 1010.4
20260505083557 26 79 16.1 29.0 0.05 0.05 0.05 85 1010.4
20260505083108 26 90 12.9 25.7 0.03 0.03 0.03 84 1010.4
20260505082556 26 124 14.5 25.7 0.03 0.03 0.03 84 1010.3
20260505082056 26 80 11.3 27.4 0.03 0.03 0.03 84 1010.3
20260505081557 26 87 16.1 37.0 0.03 0.03 0.03 84 1010.1
20260505081057 26 108 14.5 37.0 0.03 0.03 0.03 84 1010.1
20260505080556 26 76 22.5 41.8 0.00 0.00 0.00 83 1010.2
20260505080056 26 94 17.7 41.8 0.00 0.00 0.00 82 1010.1
20260505075556 27 84 25.7 41.8 0.00 0.00 0.00 81 1010.1
20260505075056 27 74 14.5 30.6 0.00 0.00 0.00 81 1010.0
20260505074559 27 94 16.1 30.6 0.00 0.00 0.00 81 1009.8
20260505074056 27 83 16.1 40.2 0.00 0.00 0.00 80 1009.7
20260505073559 27 67 17.7 40.2 0.00 0.00 0.00 78 1009.7
20260505073105 28 65 22.5 40.2 0.00 0.00 0.00 75 1009.8
20260505072557 28 104 22.5 37.0 0.00 0.00 0.00 73 1009.6
20260505072059 28 92 25.7 35.4 0.00 0.00 0.00 72 1009.5
20260505071601 29 91 22.5 35.4 0.00 0.00 0.00 72 1009.5
20260505071059 29 88 20.9 32.2 0.00 0.00 0.00 72 1009.5
20260505070559 29 76 19.3 32.2 0.00 0.00 0.00 73 1009.6
20260505070059 29 85 14.5 30.6 0.00 0.00 0.00 73 1009.7
20260505065558 30 89 16.1 30.6 0.00 0.00 0.00 73 1009.6
20260505065101 29 89 17.7 41.8 0.00 0.00 0.00 73 1009.6
20260505064604 29 81 24.1 41.8 0.00 0.00 0.00 73 1009.6
20260505064058 29 69 20.9 40.2 0.00 0.00 0.00 73 1009.6
20260505063558 29 91 22.5 40.2 0.00 0.00 0.00 74 1009.6
20260505063057 29 80 25.7 40.2 0.00 0.00 0.00 74 1009.6
20260505062559 28 54 20.9 43.5 0.00 0.00 0.00 75 1009.6
20260505062100 28 83 20.9 48.3 0.00 0.00 0.00 75 1009.5
20260505061557 28 80 25.7 48.3 0.00 0.00 0.00 73 1009.5
20260505061057 30 72 19.3 37.0 0.00 0.00 0.00 71 1009.6
20260505060557 30 71 22.5 37.0 0.00 0.00 0.00 71 1009.6
20260505060103 30 78 19.3 37.0 0.00 0.00 0.00 70 1009.5
20260505055558 30 80 20.9 37.0 0.00 0.00 0.00 70 1009.6
20260505055101 30 84 22.5 38.6 0.00 0.00 0.00 68 1009.7
20260505054604 30 59 20.9 41.8 0.00 0.00 0.00 70 1009.7
20260505054059 30 83 25.7 41.8 0.00 0.00 0.00 68 1009.7
20260505053557 30 55 19.3 33.8 0.00 0.00 0.00 69 1009.7
20260505053111 30 72 19.3 33.8 0.00 0.00 0.00 69 1009.7
20260505052559 30 46 19.3 33.8 0.00 0.00 0.00 69 1009.6
20260505052058 30 78 19.3 35.4 0.00 0.00 0.00 69 1009.6
20260505051600 30 90 19.3 40.2 0.00 0.00 0.00 68 1009.6
20260505051059 30 84 22.5 40.2 0.00 0.00 0.00 68 1009.6
20260505050557 30 87 22.5 33.8 0.00 0.00 0.00 68 1009.6
20260505041615 30 83 27.4 45.1 0.00 0.00 0.00 67 1009.6
20260505041058 30 81 19.3 45.1 0.00 0.00 0.00 67 1009.6
20260505040600 30 28 24.1 37.0 0.00 0.00 0.00 68 1009.6
20260505040106 31 43 19.3 38.6 0.00 0.00 0.00 67 1009.7
20260505035556 31 102 20.9 38.6 0.00 0.00 0.00 67 1009.7
20260505035059 31 107 22.5 37.0 0.00 0.00 0.00 67 1009.8
20260505034607 31 44 14.5 37.0 0.00 0.00 0.00 67 1009.8
20260505034057 30 81 19.3 37.0 0.00 0.00 0.00 68 1009.7
20260505033559 30 51 22.5 37.0 0.00 0.00 0.00 66 1009.8
20260505033059 31 72 20.9 41.8 0.00 0.00 0.00 67 1009.9
20260505032559 30 109 22.5 41.8 0.00 0.00 0.00 67 1010.0
20260505032102 30 74 27.4 41.8 0.00 0.00 0.00 67 1010.0
20260505031606 30 89 20.9 37.0 0.00 0.00 0.00 70 1010.0
20260505031101 30 69 20.9 33.8 0.00 0.00 0.00 69 1010.1
20260505030600 30 61 17.7 30.6 0.00 0.00 0.00 68 1010.2
20260505030100 31 74 19.3 32.2 0.00 0.00 0.00 64 1010.3
20260505025558 31 67 19.3 32.2 0.00 0.00 0.00 66 1010.2
20260505025059 31 82 19.3 41.8 0.00 0.00 0.00 66 1010.3
20260505024558 30 86 24.1 41.8 0.00 0.00 0.00 68 1010.4
20260505024059 30 82 19.3 37.0 0.00 0.00 0.00 69 1010.4
20260505023556 30 55 20.9 37.0 0.00 0.00 0.00 69 1010.4
20260505023104 31 74 19.3 33.8 0.00 0.00 0.00 69 1010.7
20260505022556 31 96 20.9 33.8 0.00 0.00 0.00 67 1010.7
20260505022057 31 107 20.9 33.8 0.00 0.00 0.00 66 1010.8
20260505021559 31 55 20.9 33.8 0.00 0.00 0.00 65 1010.9
20260505021059 31 96 20.9 35.4 0.00 0.00 0.00 65 1011.0
20260505020557 30 69 20.9 35.4 0.00 0.00 0.00 66 1011.1
20260505020058 31 51 20.9 35.4 0.00 0.00 0.00 67 1011.1
20260505015559 31 108 16.1 35.4 0.00 0.00 0.00 66 1011.0
20260505015102 30 77 20.9 35.4 0.00 0.00 0.00 67 1011.1
20260505014557 30 74 24.1 37.0 0.00 0.00 0.00 67 1011.1
20260505014058 31 44 19.3 37.0 0.00 0.00 0.00 66 1011.1
20260505013556 31 91 19.3 38.6 0.00 0.00 0.00 67 1011.1
20260505013100 30 81 14.5 38.6 0.00 0.00 0.00 68 1011.2
20260505012557 30 360 27.4 38.6 0.00 0.00 0.00 68 1011.3
20260505012057 30 62 20.9 32.2 0.00 0.00 0.00 69 1011.4
20260505011558 30 67 22.5 32.2 0.00 0.00 0.00 69 1011.4
20260505011100 30 100 16.1 32.2 0.00 0.00 0.00 70 1011.4
20260505010557 30 75 16.1 37.0 0.00 0.00 0.00 69 1011.5
20260505010057 30 86 22.5 37.0 0.00 0.00 0.00 69 1011.5
20260505005557 30 81 24.1 38.6 0.00 0.00 0.00 68 1011.6
20260505005057 30 80 17.7 38.6 0.00 0.00 0.00 68 1011.7
20260505004559 30 109 22.5 38.6 0.00 0.00 0.00 68 1011.8
20260505004057 -51 69 17.7 38.6 0.00 0.00 0.00 70 1011.7
20260505003557 30 59 20.9 37.0 0.00 0.00 0.00 69 1011.7
20260505003058 30 72 20.9 37.0 0.00 0.00 0.00 68 1011.8
20260505002557 30 51 17.7 37.0 0.00 0.00 0.00 67 1011.9
20260505002057 30 92 22.5 37.0 0.00 0.00 0.00 67 1011.9
20260505001558 30 96 17.7 37.0 0.00 0.00 0.00 68 1012.0
20260505001056 30 72 19.3 40.2 0.00 0.00 0.00 69 1012.1
20260505000558 30 352 20.9 40.2 0.00 0.00 0.00 69 1012.1
20260505000108 30 82 24.1 40.2 0.00 0.00 0.00 69 1012.1
20260504235555 30 70 20.9 35.4 0.00 0.00 0.00 69 1012.2
20260504235055 30 79 20.9 35.4 0.00 0.00 0.00 68 1012.2
20260504234622 30 82 17.7 33.8 0.00 0.00 0.00 68 1012.3
20260504234054 30 80 17.7 40.2 0.00 0.00 0.00 69 1012.2
20260504233554 30 83 17.7 40.2 0.00 0.00 0.00 70 1012.3
20260504233058 30 75 20.9 37.0 0.00 0.00 0.00 70 1012.3
20260504232555 30 87 19.3 40.2 0.00 0.00 0.00 70 1012.3
20260504232057 30 81 22.5 40.2 0.00 0.00 0.00 70 1012.3
20260504231603 29 82 20.9 40.2 0.00 0.00 0.00 69 1012.2
20260504231057 29 80 17.7 37.0 0.00 0.00 0.00 70 1012.2
20260504230600 -51 99 19.3 37.0 0.00 0.00 0.00 69 1012.2
20260504230058 29 67 17.7 37.0 0.00 0.00 0.00 70 1012.3
20260504225557 -51 65 20.9 37.0 0.00 0.00 0.00 1012.3
20260504225056 29 66 19.3 32.2 0.00 0.00 0.00 71 1012.2
20260504224556 29 115 19.3 30.6 0.00 0.00 0.00 72 1012.3
20260504224102 29 110 19.3 30.6 0.00 0.00 0.00 72 1012.3
20260504223558 28 103 20.9 27.4 0.00 0.00 0.00 72 1012.3
20260504223058 29 98 17.7 27.4 0.00 0.00 0.00 73 1012.3
20260504222602 29 59 11.3 24.1 0.00 0.00 0.00 73 1012.3
20260504222057 29 57 16.1 30.6 0.00 0.00 0.00 74 1012.2
20260504221609 29 63 17.7 33.8 0.00 0.00 0.00 74 1012.3
20260504221057 28 44 16.1 35.4 0.00 0.00 0.00 73 1012.1
20260504220557 28 91 19.3 35.4 0.00 0.00 0.00 73 1012.1
20260504220059 28 67 20.9 35.4 0.00 0.00 0.00 73 1012.2
20260504215557 28 67 17.7 29.0 0.00 0.00 0.00 72 1012.1
20260504215055 28 94 16.1 29.0 0.00 0.00 0.00 73 1012.1
20260504214600 28 65 12.9 24.1 0.00 0.00 0.00 73 1012.0
20260504214057 28 76 9.7 29.0 0.00 0.00 0.00 73 1012.0
20260504213555 28 101 16.1 29.0 0.00 0.00 0.00 74 1011.9
20260504213058 28 69 16.1 25.7 0.00 0.00 0.00 74 1011.9
20260504212557 28 122 12.9 24.1 0.00 0.00 0.00 75 1011.8
20260504212055 28 89 12.9 24.1 0.00 0.00 0.00 76 1011.9
20260504211558 28 57 12.9 25.7 0.00 0.00 0.00 76 1011.9
20260504211058 28 92 16.1 29.0 0.00 0.00 0.00 76 1011.9
20260504210555 27 76 11.3 29.0 0.00 0.00 0.00 77 1011.9
20260504210110 27 106 8.0 24.1 0.00 0.00 0.00 77 1011.8
20260504205557 27 68 16.1 24.1 0.00 0.00 0.00 77 1011.7
20260504205058 27 103 14.5 24.1 0.00 0.00 0.00 77 1011.6
20260504204602 27 79 14.5 24.1 0.00 0.00 0.00 78 1011.6
20260504204055 27 76 11.3 25.7 0.00 0.00 0.00 78 1011.5
20260504203557 27 78 12.9 27.4 0.00 0.00 0.00 78 1011.4
20260504203054 27 78 12.9 27.4 0.00 0.00 0.00 78 1011.4
20260504202557 27 78 9.7 25.7 0.00 0.00 0.00 78 1011.2
20260504202059 27 75 14.5 35.4 0.00 0.00 0.00 79 1011.2
20260504201607 27 59 12.9 35.4 0.00 0.00 0.00 79 1011.2
20260504201057 27 94 11.3 25.7 0.00 0.00 0.00 79 1011.1
20260504200555 27 80 12.9 27.4 0.00 0.00 0.00 79 1011.0
20260504200100 27 82 12.9 27.4 0.00 0.00 0.00 79 1011.0
20260504195555 27 65 14.5 25.7 0.00 0.00 0.00 80 1011.0
20260504195058 27 89 12.9 25.7 0.00 0.00 0.00 80 1011.0
20260504194608 27 90 14.5 25.7 0.00 0.00 0.00 80 1011.0
20260504194055 27 83 11.3 22.5 0.00 0.00 0.00 80 1010.9
20260504193555 27 82 12.9 22.5 0.00 0.00 0.00 80 1010.8
20260504193056 27 74 11.3 22.5 0.00 0.00 0.00 81 1010.8
20260504192555 27 48 8.0 16.1 0.00 0.00 0.00 82 1010.8